1509458400.82,24389,7.38,73044.8,-11.99,-12.97,-13.01,0,*6A
1509458402.04,24390,7.38,73046.5,-11.99,-12.89,-12.89,0,*6C
1509458403.25,24391,7.38,73040.8,-11.99,-12.97,-13.11,0,*62
1509458404.47,24392,7.38,73042.3,-11.99,-12.97,-13.11,0,*61
1509458405.72,24393,7.38,73038.5,-11.97,-12.97,-12.97,0,*61
1509458406.95,24394,7.38,73040.5,-11.99,-12.97,-13.01,0,*66
1509458408.17,24395,7.38,73046.0,-11.99,-12.97,-13.11,0,*66
1509458409.39,24396,7.38,73042.3,-11.99,-12.97,-13.11,0,*65
1509458410.61,24397,7.38,73050.5,-11.99,-12.89,-12.97,0,*64
1509458411.83,24398,7.38,73050.8,-11.99,-12.93,-12.93,0,*64
1509458413.04,24399,7.38,73050.5,-11.99,-12.89,-12.89,0,*65
1509458414.26,24400,7.38,73046.3,-11.99,-12.89,-12.89,0,*62
1509458415.48,24401,7.31,73044.3,-11.99,-12.89,-12.89,0,*63
1509458416.69,24402,7.38,73040.5,-11.99,-12.89,-12.89,0,*60
1509458417.91,24403,7.38,73038.0,-11.99,-12.89,-12.97,0,*6E
1509458419.13,24404,7.31,73032.0,-11.99,-12.89,-12.89,0,*66
1509458420.35,24405,7.38,73040.3,-11.99,-12.89,-12.89,0,*67
1509458421.59,24406,7.38,73042.8,-11.99,-12.83,-12.89,0,*6E
1509458422.83,24407,7.38,73036.5,-11.99,-12.79,-12.89,0,*6A
1509458424.07,24408,7.31,73044.0,-11.99,-12.83,-12.89,0,*60
1509458425.31,24409,7.38,73046.5,-11.99,-12.83,-12.89,0,*61
1509458426.55,24410,7.31,73040.0,-11.99,-12.83,-12.89,0,*69
1509458427.79,24411,7.31,73036.5,-11.99,-12.83,-12.89,0,*68
1509458429.03,24412,7.31,73046.8,-11.99,-12.83,-12.89,0,*6B
1509458430.26,24413,7.38,73052.0,-11.99,-12.93,-13.01,0,*6A
1509458431.5,24414,7.38,73040.3,-11.99,-12.83,-12.89,0,*6D
1509458432.74,24415,7.31,73038.8,-11.99,-12.83,-12.89,0,*6C
1509458433.98,24416,7.31,73036.3,-11.99,-12.83,-12.97,0,*60
1509458435.22,24417,7.38,73038.5,-11.99,-12.83,-12.89,0,*6E
1509458436.46,24418,7.38,73022.5,-11.99,-12.97,-13.01,0,*65
1509458437.7,24419,7.31,73014.3,-11.99,-12.89,-13.01,0,*6B
1509458438.94,24420,7.38,73028.0,-11.99,-13.01,-13.07,0,*66
1509458440.18,24421,7.38,73040.5,-11.99,-13.01,-13.07,0,*67
1509458441.41,24422,7.38,73024.3,-11.99,-13.01,-13.07,0,*64
1509458442.65,24423,7.38,73020.5,-11.99,-12.93,-13.01,0,*69
1509458443.87,24424,7.38,72996.5,-11.99,-12.93,-12.93,0,*64
1509458445.09,24425,7.38,73014.0,-11.99,-12.89,-12.93,0,*6E
1509458446.33,24426,7.31,73016.8,-11.99,-12.83,-12.89,0,*6C
1509458447.57,24427,7.38,73016.0,-11.99,-12.83,-12.89,0,*6D
1509458448.81,24428,7.31,73026.5,-11.99,-12.83,-12.89,0,*62
1509458450.05,24429,7.38,73030.5,-11.99,-12.83,-12.89,0,*63
1509458451.31,24430,7.38,73036.3,-11.99,-12.83,-12.83,0,*61
1509458452.53,24431,7.31,73032.8,-11.99,-12.89,-12.93,0,*6B
1509458453.77,24432,7.38,73044.8,-11.99,-12.79,-12.89,0,*6C
1509458455.01,24433,7.38,73044.5,-11.99,-12.79,-12.89,0,*6D
1509458456.25,24434,7.38,73044.3,-11.99,-12.83,-12.89,0,*6F
1509458457.49,24435,7.38,73050.5,-11.99,-12.83,-12.89,0,*6E
1509458458.73,24436,7.31,73050.0,-11.99,-12.83,-12.89,0,*6D
1509458459.99,24437,7.31,73040.0,-11.99,-12.83,-13.01,0,*6D
1509458461.23,24438,7.38,73044.5,-11.99,-12.97,-13.01,0,*67
1509458462.47,24439,7.38,73044.5,-11.99,-13.01,-13.07,0,*6E
1509458463.68,24440,7.31,73046.8,-11.99,-13.11,-13.23,0,*67
1509458464.9,24441,7.38,73046.5,-11.99,-13.11,-13.23,0,*66
1509458466.12,24442,7.38,73046.0,-11.99,-13.07,-13.19,0,*6B
1509458467.38,24443,7.38,73042.8,-12.01,-13.15,-13.29,0,*68
1509458468.6,24444,7.38,73044.8,-11.99,-13.07,-13.15,0,*61
1509458469.83,24445,7.38,73040.8,-12.01,-13.15,-13.15,0,*61
1509458471.07,24446,7.38,73040.5,-11.99,-12.93,-13.01,0,*6A
1509458472.31,24447,7.38,73050.0,-12.01,-12.93,-13.07,0,*6F
1509458473.6,24448,7.38,73054.3,-12.01,-13.01,-13.01,0,*6C
1509458474.82,24449,7.38,73050.8,-11.99,-12.93,-12.93,0,*6F
1509458476.03,24450,7.38,73040.5,-11.99,-13.07,-13.15,0,*64
1509458477.28,24451,7.38,73054.3,-12.01,-12.93,-12.93,0,*64
1509458478.54,24452,7.38,73054.3,-11.99,-13.01,-13.01,0,*65
1509458479.78,24453,7.38,73054.0,-11.99,-13.01,-13.15,0,*61
1509458481.0,24454,7.31,73050.5,-11.99,-12.93,-12.93,0,*63
1509458482.22,24455,7.31,73046.8,-11.99,-12.93,-12.93,0,*62
1509458483.46,24456,7.38,73048.5,-11.99,-12.83,-12.93,0,*60
1509458484.7,24457,7.38,73054.5,-11.99,-12.89,-13.01,0,*61
1509458485.94,24458,7.38,73048.3,-11.99,-12.83,-12.93,0,*6E
1509458487.18,24459,7.38,73060.5,-11.99,-12.83,-12.89,0,*64
1509458488.42,24460,7.38,73062.3,-12.01,-12.89,-12.93,0,*6D
1509458489.66,24461,7.38,73058.5,-12.01,-12.89,-12.89,0,*67
1509458490.92,24462,7.31,73062.8,-11.99,-12.83,-13.01,0,*6D
1509458492.16,24463,7.38,73068.0,-11.99,-12.89,-13.01,0,*66
1509458493.4,24464,7.38,73066.8,-11.99,-12.93,-13.01,0,*6A
1509458494.64,24465,7.38,73064.8,-12.01,-12.93,-12.93,0,*63
1509458495.88,24466,7.38,73070.5,-11.99,-12.93,-13.01,0,*68
1509458497.12,24467,7.31,73060.8,-11.99,-13.01,-13.07,0,*65
1509458498.36,24468,7.38,73066.8,-11.99,-12.93,-13.01,0,*66
1509458499.6,24469,7.31,73066.3,-12.01,-12.93,-13.07,0,*63
1509458500.85,24470,7.38,73064.3,-11.99,-13.01,-12.93,0,*6F
1509458502.06,24471,7.38,73070.5,-11.99,-12.93,-13.07,0,*68
1509458503.28,24472,7.38,73068.0,-11.99,-12.93,-13.07,0,*6B
1509458504.52,24473,7.38,73062.3,-12.01,-12.93,-13.15,0,*6B
1509458505.73,24474,7.31,73064.5,-11.99,-13.07,-13.15,0,*62
1509458506.99,24475,7.38,73070.5,-12.01,-13.01,-13.15,0,*67
1509458508.22,24476,7.31,73074.3,-11.99,-13.07,-13.19,0,*6C
1509458509.48,24477,7.31,73074.5,-12.01,-13.01,-13.07,0,*66
1509458510.69,24478,7.31,73064.5,-11.99,-13.07,-13.07,0,*6D
1509458511.96,24479,7.31,73064.8,-12.01,-13.01,-13.15,0,*6B
1509458513.23,24480,7.31,73058.3,-12.01,-13.01,-13.07,0,*6E
1509458514.49,24481,7.38,73068.5,-12.01,-12.93,-13.01,0,*63
1509458515.74,24482,7.38,73068.5,-12.01,-12.93,-12.93,0,*6A
1509458516.98,24483,7.38,73062.8,-12.01,-12.93,-12.93,0,*6B
1509458518.25,24484,7.38,73054.0,-12.01,-12.93,-13.01,0,*66
1509458519.47,24485,7.31,73028.0,-11.99,-12.93,-12.93,0,*6F
1509458520.73,24486,7.38,73028.5,-12.01,-12.89,-13.01,0,*6F
1509458521.98,24487,7.31,73026.8,-12.01,-12.89,-12.93,0,*64
1509458523.19,24488,7.38,73034.8,-11.99,-12.89,-12.93,0,*69
1509458524.41,24489,7.31,73036.5,-11.99,-12.89,-12.93,0,*68
1509458525.66,24490,7.31,73036.5,-12.01,-12.89,-12.93,0,*62
1509458526.89,24491,7.31,73038.5,-11.99,-12.89,-13.01,0,*6B
1509458528.15,24492,7.38,73036.8,-12.01,-12.89,-13.01,0,*6A
1509458529.42,24493,7.38,73036.5,-12.01,-12.93,-13.01,0,*60
1509458530.64,24494,7.31,73032.5,-11.99,-12.93,-12.93,0,*6F
1509458531.88,24495,7.31,73000.5,-11.99,-12.83,-12.93,0,*6F
1509458533.12,24496,7.31,73022.8,-12.01,-12.89,-12.89,0,*6F
1509458534.37,24497,7.31,73018.3,-12.01,-12.89,-12.93,0,*65
1509458535.61,24498,7.38,73046.3,-11.99,-12.83,-12.93,0,*62
1509458536.85,24499,7.31,73054.3,-11.99,-12.93,-13.01,0,*68
1509458538.09,24500,7.31,73024.5,-12.01,-12.93,-12.93,0,*61
1509458539.31,24501,7.38,73014.5,-11.99,-12.89,-12.93,0,*69
1509458540.55,24502,7.31,73024.8,-12.01,-12.89,-12.93,0,*68
1509458541.8,24503,7.38,73046.8,-12.01,-12.89,-12.93,0,*69
1509458543.04,24504,7.38,73054.3,-12.01,-12.89,-12.93,0,*6E
1509458544.31,24505,7.38,73048.8,-12.01,-12.93,-13.01,0,*6E
1509458545.53,24506,7.38,73054.0,-11.99,-12.93,-12.93,0,*65
1509458546.79,24507,7.38,73052.3,-12.01,-12.89,-13.01,0,*67
1509458548.06,24508,7.38,73052.0,-12.01,-13.01,-13.07,0,*6F
1509458549.32,24509,7.38,73042.0,-12.01,-13.01,-13.15,0,*6D
1509458550.59,24510,7.38,73040.3,-12.01,-13.01,-13.15,0,*65
1509458551.83,24511,7.38,73042.0,-12.01,-12.93,-13.07,0,*6D
1509458553.07,24512,7.38,73046.8,-12.01,-12.93,-13.07,0,*6E
1509458554.34,24513,7.31,73040.3,-12.01,-13.01,-13.15,0,*66
1509458555.57,24514,7.38,73030.8,-12.01,-13.07,-13.15,0,*67
1509458556.84,24515,7.31,73028.3,-12.01,-12.89,-13.01,0,*64
1509458558.05,24516,7.31,73036.0,-11.99,-12.89,-12.93,0,*6F
1509458559.32,24517,7.38,73040.0,-12.01,-12.83,-12.89,0,*6D
1509458560.56,24518,7.38,73048.0,-12.01,-12.89,-12.89,0,*68
1509458561.83,24519,7.38,73032.5,-12.01,-12.89,-13.01,0,*68
1509458563.07,24520,7.31,73032.0,-12.01,-12.89,-12.93,0,*68
1509458564.33,24521,7.38,73030.3,-12.01,-12.89,-13.01,0,*63
1509458565.58,24522,7.38,73026.5,-12.01,-12.93,-12.93,0,*61
1509458566.83,24523,7.38,73020.3,-12.01,-12.93,-12.93,0,*60
1509458568.07,24524,7.31,72998.3,-12.01,-12.89,-12.93,0,*6C
1509458569.29,24525,7.31,73026.3,-11.99,-12.89,-12.93,0,*6F
1509458570.52,24526,7.31,73032.0,-11.99,-12.89,-13.01,0,*66
1509458571.77,24527,7.31,73042.0,-12.01,-12.93,-12.93,0,*64
1509458573.04,24528,7.38,73028.5,-12.01,-12.93,-13.01,0,*61
1509458574.33,24529,7.38,73026.3,-12.01,-13.01,-13.01,0,*6A
1509458575.54,24530,7.31,73032.5,-11.99,-12.93,-13.07,0,*6C
1509458576.78,24531,7.31,73022.0,-12.01,-12.93,-13.07,0,*6F
1509458578.04,24532,7.38,73030.0,-11.99,-13.01,-13.01,0,*62
1509458579.29,24533,7.31,73038.3,-12.01,-12.93,-12.93,0,*61
1509458580.54,24534,7.38,73042.5,-12.01,-12.89,-12.93,0,*6D
1509458581.78,24535,7.31,73036.3,-12.01,-12.89,-12.93,0,*6C
1509458583.0,24536,7.38,73034.8,-11.99,-12.89,-12.93,0,*6D
1509458584.26,24537,7.31,73030.5,-12.01,-12.89,-13.01,0,*64
1509458585.51,24538,7.31,73028.0,-12.01,-12.93,-12.93,0,*6A
1509458586.78,24539,7.31,73040.8,-12.01,-12.75,-12.89,0,*68
1509458588.02,24540,7.31,73038.3,-11.99,-12.89,-13.01,0,*66
1509458589.24,24541,7.31,73040.3,-11.99,-12.93,-12.93,0,*66
1509458590.48,24542,7.38,73044.8,-12.01,-12.89,-12.93,0,*6C
1509458591.7,24543,7.38,73042.8,-11.99,-12.89,-12.93,0,*6F
1509458592.96,24544,7.38,73050.8,-12.01,-12.83,-12.93,0,*60
1509458594.23,24545,7.31,73064.8,-12.01,-12.83,-12.89,0,*6A
1509458595.47,24546,7.31,73054.8,-12.01,-12.89,-12.93,0,*68
1509458596.74,24547,7.38,73052.3,-12.01,-12.89,-13.01,0,*63
1509458597.98,24548,7.38,73062.3,-12.01,-12.93,-12.93,0,*6D
1509458599.22,24549,7.38,73062.5,-12.01,-12.93,-13.15,0,*63
1509458600.49,24550,7.31,73060.8,-12.01,-13.01,-13.15,0,*61
1509458601.72,24551,7.31,73030.3,-11.99,-13.15,-13.29,0,*68
1509458602.99,24552,7.31,72996.8,-12.01,-13.19,-13.29,0,*65
1509458604.26,24553,7.31,72964.3,-12.01,-13.19,-13.33,0,*6F
1509458605.53,24554,7.38,72952.3,-12.01,-13.15,-13.29,0,*6F
1509458606.8,24555,7.38,72972.3,-12.01,-13.19,-13.29,0,*62
1509458608.03,24556,7.31,72970.3,-12.01,-13.07,-13.15,0,*61
1509458609.27,24557,7.31,72972.0,-12.01,-12.93,-13.07,0,*6F
1509458610.49,24558,7.31,72982.3,-12.05,-12.97,-12.97,0,*68
1509458611.71,24559,7.31,72994.0,-12.05,-12.97,-13.07,0,*61
1509458612.97,24560,7.38,73000.0,-12.01,-12.93,-13.01,0,*6D
1509458614.24,24561,7.31,73004.3,-12.01,-12.93,-13.01,0,*6C
1509458615.45,24562,7.38,73012.3,-12.05,-12.97,-13.07,0,*69
1509458616.67,24563,7.31,73010.8,-12.05,-12.97,-12.97,0,*60
1509458617.88,24564,7.31,73000.5,-12.05,-12.97,-13.07,0,*6F
1509458619.1,24565,7.31,73000.3,-12.05,-12.97,-12.97,0,*66
1509458620.32,24566,7.38,73000.3,-12.05,-12.97,-12.97,0,*65
1509458621.54,24567,7.31,73000.8,-12.05,-12.89,-12.97,0,*6B
1509458622.78,24568,7.38,73008.5,-11.99,-12.83,-12.93,0,*6C
1509458624.02,24569,7.31,73010.5,-12.01,-12.89,-12.93,0,*65
1509458625.27,24570,7.38,73016.3,-12.01,-12.89,-12.93,0,*6D
1509458626.53,24571,7.31,73014.8,-12.01,-12.83,-12.89,0,*6D
1509458627.8,24572,7.38,73016.8,-12.01,-12.93,-13.01,0,*6E
1509458629.02,24573,7.38,73012.8,-12.05,-12.93,-12.97,0,*65
1509458630.23,24574,7.31,73010.0,-12.05,-12.89,-12.97,0,*69
1509458631.47,24575,7.38,73026.0,-11.99,-12.83,-12.93,0,*60
1509458632.69,24576,7.31,73034.0,-12.05,-12.89,-12.97,0,*6B
1509458633.98,24577,7.38,73042.5,-12.01,-12.75,-12.83,0,*68
1509458635.26,24578,7.38,73046.0,-12.01,-12.75,-12.89,0,*6D
1509458636.53,24579,7.31,73022.8,-12.01,-12.75,-12.89,0,*6C
1509458637.77,24580,7.31,73010.0,-12.01,-12.89,-12.93,0,*62
1509458639.04,24581,7.31,73008.3,-12.01,-12.83,-12.93,0,*69
1509458640.26,24582,7.38,73010.0,-12.05,-12.93,-12.97,0,*6B
1509458641.5,24583,7.38,73008.3,-12.01,-12.89,-12.93,0,*61
1509458642.72,24584,7.31,73020.0,-12.05,-12.93,-12.97,0,*6D
1509458643.94,24585,7.31,73014.0,-12.05,-12.93,-12.97,0,*6C
1509458645.16,24586,7.31,73018.5,-12.05,-12.97,-13.11,0,*64
1509458646.38,24587,7.31,73018.0,-12.05,-12.97,-12.97,0,*6A
1509458647.6,24588,7.38,73016.8,-12.05,-12.93,-12.97,0,*61
1509458648.83,24589,7.38,73018.3,-11.99,-12.89,-13.01,0,*63
1509458650.07,24590,7.31,73018.0,-12.01,-12.89,-12.89,0,*68
1509458651.34,24591,7.31,73018.8,-12.01,-12.93,-13.01,0,*63
1509458652.63,24592,7.31,73018.5,-12.01,-13.01,-13.01,0,*6A
1509458653.89,24593,7.31,72996.8,-12.01,-12.93,-13.01,0,*61
1509458655.14,24594,7.31,73014.8,-12.01,-12.93,-12.93,0,*6C
1509458656.39,24595,7.31,73034.5,-12.01,-12.93,-12.93,0,*6D
1509458657.61,24596,7.31,73026.5,-12.05,-12.97,-12.97,0,*6A
1509458658.83,24597,7.31,73014.8,-12.05,-12.97,-12.97,0,*6B
1509458660.05,24598,7.31,72986.5,-12.05,-12.97,-12.97,0,*64
1509458661.29,24599,7.38,72998.8,-12.01,-12.93,-12.93,0,*61
1509458662.58,24600,7.38,72994.0,-12.01,-13.01,-13.01,0,*62
1509458663.83,24601,7.38,73010.3,-12.01,-12.93,-12.93,0,*63
1509458665.04,24602,7.31,73000.3,-12.05,-12.97,-13.07,0,*6C
1509458666.26,24603,7.38,73006.5,-12.05,-12.97,-12.97,0,*65
1509458667.48,24604,7.31,73016.8,-12.05,-12.97,-12.97,0,*62
1509458668.7,24605,7.31,73008.8,-12.05,-12.97,-12.97,0,*63
1509458669.92,24606,7.31,73020.0,-12.05,-12.97,-12.97,0,*60
1509458671.14,24607,7.38,73018.5,-12.05,-12.93,-12.97,0,*65
1509458672.35,24608,7.31,73010.0,-12.05,-13.07,-12.97,0,*66
1509458673.57,24609,7.38,73000.3,-12.05,-12.97,-12.97,0,*6F
1509458674.79,24610,7.31,72996.3,-12.05,-12.93,-12.93,0,*67
1509458676.03,24611,7.31,73002.0,-12.07,-12.93,-12.93,0,*64
1509458677.25,24612,7.31,73012.5,-12.05,-12.93,-12.97,0,*61
1509458678.47,24613,7.31,73010.5,-11.99,-12.89,-12.93,0,*69
1509458679.69,24614,7.31,73018.5,-11.99,-12.89,-12.93,0,*6E
1509458680.93,24615,7.31,73024.5,-12.01,-12.89,-12.93,0,*6D
1509458682.15,24616,7.38,73034.8,-11.99,-12.89,-12.93,0,*6C
1509458683.39,24617,7.31,73036.3,-12.01,-12.89,-12.89,0,*64
1509458684.64,24618,7.38,73040.3,-12.01,-12.89,-12.89,0,*6B
1509458685.85,24619,7.38,73050.8,-12.05,-12.89,-12.93,0,*65
1509458687.1,24620,7.31,73048.8,-12.01,-12.89,-12.89,0,*60
1509458688.34,24621,7.31,73044.5,-12.01,-12.93,-12.93,0,*61
1509458689.61,24622,7.31,73040.8,-12.01,-12.93,-13.01,0,*68
1509458690.83,24623,7.38,73046.0,-12.05,-12.97,-12.97,0,*67
1509458692.07,24624,7.31,73042.8,-12.01,-12.93,-12.93,0,*64
1509458693.29,24625,7.31,73046.0,-11.99,-12.89,-12.93,0,*6C
1509458694.54,24626,7.38,73048.8,-12.01,-12.89,-12.89,0,*66
1509458695.76,24627,7.38,73042.0,-12.05,-12.93,-12.89,0,*68
1509458696.98,24628,7.31,73032.0,-12.05,-12.93,-12.93,0,*6C
1509458698.22,24629,7.38,73020.3,-12.01,-12.89,-12.89,0,*69
1509458699.47,24630,7.38,73020.0,-12.01,-12.93,-12.93,0,*61
1509458700.69,24631,7.31,73024.3,-11.99,-12.93,-12.93,0,*62
1509458701.93,24632,7.31,73004.3,-12.01,-13.07,-13.15,0,*60
1509458703.19,24633,7.31,73020.3,-12.01,-13.01,-13.07,0,*64
1509458704.48,24634,7.31,73034.5,-12.01,-13.01,-13.01,0,*65
1509458705.69,24635,7.31,73036.8,-12.05,-12.97,-13.07,0,*68
1509458706.91,24636,7.31,73038.5,-12.05,-12.97,-12.97,0,*63
1509458708.13,24637,7.38,73046.3,-12.05,-12.93,-12.97,0,*66
1509458709.35,24638,7.38,73024.8,-11.99,-12.89,-12.93,0,*60
1509458710.62,24639,7.31,73034.0,-12.01,-13.01,-12.93,0,*62
1509458711.84,24640,7.38,73032.3,-12.05,-12.97,-12.97,0,*62
1509458713.06,24641,7.31,73036.0,-12.05,-12.97,-13.11,0,*6C
1509458714.27,24642,7.31,73026.3,-12.05,-12.97,-13.07,0,*68
1509458715.49,24643,7.38,73024.3,-12.05,-12.97,-13.19,0,*66
1509458716.71,24644,7.38,73022.5,-12.05,-12.97,-12.97,0,*66
1509458717.93,24645,7.31,73022.8,-12.05,-12.97,-12.97,0,*67
1509458719.15,24646,7.38,73026.0,-12.05,-12.93,-12.97,0,*60
1509458720.39,24647,7.31,73022.3,-12.07,-12.93,-12.97,0,*63
1509458721.61,24648,7.31,73006.5,-12.05,-12.97,-12.97,0,*6A
1509458722.83,24649,7.31,73004.5,-12.05,-13.11,-13.11,0,*6B
1509458724.05,24650,7.31,73008.5,-12.05,-12.97,-12.97,0,*63
1509458725.26,24651,7.38,73010.5,-12.05,-12.97,-12.97,0,*62
1509458726.48,24652,7.38,73016.5,-12.05,-12.93,-12.97,0,*65
1509458727.7,24653,7.38,73012.0,-12.05,-12.93,-13.07,0,*6C
1509458728.91,24654,7.31,73004.3,-12.05,-12.89,-12.93,0,*6C
1509458730.16,24655,7.38,73004.3,-12.01,-12.89,-12.89,0,*62
1509458731.37,24656,7.38,73010.0,-12.05,-12.89,-12.93,0,*6E
1509458732.62,24657,7.38,73006.8,-12.01,-12.89,-12.89,0,*60
1509458733.86,24658,7.38,73006.5,-12.01,-12.89,-12.89,0,*6F
1509458735.11,24659,7.38,73002.0,-12.01,-12.89,-12.89,0,*6E
1509458736.32,24660,7.38,72988.3,-12.05,-13.07,-13.07,0,*60
1509458737.54,24661,7.31,72986.0,-12.05,-12.97,-12.97,0,*61
1509458738.76,24662,7.31,72990.5,-12.05,-12.93,-12.97,0,*66
1509458739.98,24663,7.31,72992.8,-12.05,-12.93,-12.93,0,*63
1509458741.19,24664,7.38,72998.3,-12.05,-12.89,-12.93,0,*6F
1509458742.41,24665,7.38,72998.3,-12.05,-12.93,-12.93,0,*65
1509458743.63,24666,7.31,72992.5,-12.05,-12.93,-12.97,0,*62
1509458744.85,24667,7.38,73002.5,-12.05,-12.97,-12.97,0,*67
1509458746.09,24668,7.38,73002.3,-12.07,-12.93,-12.97,0,*6E
1509458747.34,24669,7.38,73012.0,-12.07,-12.93,-12.93,0,*6B
1509458748.55,24670,7.31,73008.0,-12.05,-12.89,-12.89,0,*61
1509458749.8,24671,7.31,73010.8,-12.01,-12.89,-12.89,0,*64
1509458751.02,24672,7.38,73030.8,-12.05,-12.93,-12.93,0,*63
1509458752.31,24673,7.31,73028.8,-12.01,-12.83,-12.83,0,*66
1509458753.57,24674,7.38,73030.5,-12.01,-12.83,-12.89,0,*6B
1509458754.79,24675,7.38,73028.0,-12.05,-12.93,-12.93,0,*64
1509458756.03,24676,7.31,73034.3,-12.07,-12.97,-12.97,0,*65
1509458757.25,24677,7.38,73038.3,-12.05,-12.97,-12.97,0,*66
1509458758.5,24678,7.38,73028.8,-12.01,-12.89,-12.93,0,*66
1509458759.74,24679,7.38,73014.8,-12.01,-12.89,-12.93,0,*67
1509458760.96,24680,7.38,73020.0,-12.05,-12.89,-12.89,0,*6E
1509458762.18,24681,7.38,73030.0,-11.99,-12.89,-12.93,0,*62
1509458763.39,24682,7.38,73010.0,-12.05,-12.93,-12.97,0,*68
1509458764.61,24683,7.31,73018.5,-12.05,-12.93,-12.97,0,*69
1509458765.86,24684,7.38,73016.5,-12.07,-12.93,-12.97,0,*6C
1509458767.08,24685,7.38,73038.5,-12.05,-12.93,-12.97,0,*6F
1509458768.29,24686,7.38,73034.5,-12.05,-12.93,-12.97,0,*6C
1509458769.51,24687,7.38,73016.0,-12.05,-12.93,-12.97,0,*6D
1509458770.73,24688,7.31,72982.3,-12.05,-12.93,-13.07,0,*6A
1509458771.94,24689,7.38,73010.3,-12.05,-12.97,-13.07,0,*6F
1509458773.16,24690,7.38,73016.3,-12.05,-12.93,-12.97,0,*6B
1509458774.38,24691,7.38,73028.5,-12.05,-12.93,-12.97,0,*6A
1509458775.6,24692,7.38,73028.8,-12.05,-12.93,-12.97,0,*69
1509458776.82,24693,7.38,73030.3,-12.05,-12.97,-12.97,0,*6C
1509458778.04,24694,7.38,73024.3,-12.05,-12.93,-12.97,0,*6F
1509458779.25,24695,7.38,73010.0,-12.05,-12.89,-12.97,0,*65
1509458780.47,24696,7.31,73008.0,-12.05,-12.93,-12.97,0,*6D
1509458781.69,24697,7.38,73004.0,-12.05,-12.93,-12.93,0,*68
1509458782.91,24698,7.38,73012.0,-12.05,-12.89,-12.89,0,*67
1509458784.13,24699,7.38,73008.0,-12.05,-12.93,-12.97,0,*62
1509458785.35,24700,7.31,73004.3,-12.05,-12.93,-12.97,0,*63
1509458786.56,24701,7.31,73018.8,-12.05,-12.93,-12.97,0,*62
1509458787.78,24702,7.38,73038.3,-12.05,-12.89,-12.97,0,*6A
1509458789.0,24703,7.38,73050.0,-12.05,-12.93,-12.97,0,*60
1509458790.22,24704,7.31,73032.8,-12.05,-12.93,-12.97,0,*67
1509458791.46,24705,7.38,73040.5,-12.07,-12.93,-12.97,0,*64
1509458792.7,24706,7.31,73036.0,-12.07,-12.89,-12.97,0,*6C
1509458793.94,24707,7.31,73032.5,-12.07,-12.89,-12.93,0,*69
1509458795.16,24708,7.38,73038.8,-12.05,-12.89,-12.93,0,*64
1509458796.38,24709,7.38,73042.5,-12.05,-12.89,-12.89,0,*6E
1509458797.65,24710,7.38,73056.3,-12.01,-12.75,-12.89,0,*61
1509458798.92,24711,7.31,73056.5,-12.01,-12.83,-12.89,0,*69
1509458800.13,24712,7.38,73056.8,-12.05,-12.89,-12.97,0,*6B
1509458801.35,24713,7.38,73056.0,-12.05,-12.93,-12.97,0,*61
1509458802.6,24714,7.31,73052.3,-12.01,-12.89,-12.93,0,*6D
1509458803.81,24715,7.38,73058.8,-12.05,-12.93,-12.97,0,*67
1509458805.03,24716,7.38,73056.3,-12.05,-12.97,-13.07,0,*68
1509458806.25,24717,7.38,73056.0,-12.05,-12.97,-12.97,0,*61
1509458807.47,24718,7.38,73056.5,-12.05,-12.93,-12.97,0,*6A
1509458808.68,24719,7.38,73056.0,-12.05,-12.89,-12.93,0,*64
1509458809.95,24720,7.38,73054.8,-12.01,-12.75,-12.89,0,*62
1509458811.22,24721,7.38,73054.0,-12.01,-12.83,-12.93,0,*61
1509458812.47,24722,7.31,73048.5,-12.01,-12.89,-12.93,0,*68
1509458813.68,24723,7.38,73052.0,-12.05,-12.93,-12.97,0,*62
1509458814.97,24724,7.31,73050.0,-12.01,-12.83,-12.83,0,*65
1509458816.27,24725,7.31,73052.3,-12.01,-12.71,-12.83,0,*69
1509458817.54,24726,7.31,73056.5,-12.01,-12.71,-12.89,0,*60
1509458818.75,24727,7.31,73052.5,-12.05,-12.89,-12.93,0,*69
1509458820.05,24728,7.38,73058.5,-12.01,-12.75,-12.83,0,*60
1509458821.32,24729,7.38,73054.0,-12.01,-12.75,-12.89,0,*6B
1509458822.59,24730,7.31,73050.5,-12.01,-12.83,-12.89,0,*6A
1509458823.85,24731,7.31,73048.8,-12.01,-12.83,-12.89,0,*6B
1509458825.12,24732,7.31,73048.5,-12.01,-12.83,-12.89,0,*68
1509458826.39,24733,7.31,73044.3,-12.01,-12.83,-12.89,0,*69
1509458827.66,24734,7.31,73048.5,-12.01,-12.75,-12.89,0,*67
1509458828.95,24735,7.31,73048.3,-12.01,-12.83,-12.83,0,*65
1509458830.22,24736,7.31,73050.0,-12.01,-12.75,-12.89,0,*65
1509458831.49,24737,7.31,73044.5,-12.01,-12.75,-12.89,0,*64
1509458832.79,24738,7.31,73044.0,-12.01,-12.71,-12.83,0,*65
1509458834.08,24739,7.38,73050.0,-12.01,-12.75,-12.83,0,*60
1509458835.36,24740,7.31,73044.8,-12.01,-12.75,-12.89,0,*64
1509458836.63,24741,7.31,73040.5,-12.01,-12.71,-12.89,0,*61
1509458837.92,24742,7.38,73048.3,-12.01,-12.75,-12.75,0,*65
1509458839.2,24743,7.31,73050.3,-12.01,-12.75,-12.89,0,*67
1509458840.47,24744,7.31,73050.0,-12.01,-12.75,-12.89,0,*60
1509458841.74,24745,7.38,73054.3,-12.01,-12.83,-12.89,0,*68
1509458842.95,24746,7.38,73050.3,-11.99,-12.89,-12.89,0,*63
1509458844.22,24747,7.31,73040.3,-12.01,-12.83,-12.89,0,*6A
1509458845.48,24748,7.31,73042.3,-12.01,-12.89,-13.01,0,*6E
1509458846.7,24749,7.38,73048.0,-11.99,-12.89,-12.93,0,*67
1509458847.94,24750,7.31,73048.0,-11.99,-12.83,-12.93,0,*65
1509458849.18,24751,7.31,73052.5,-11.99,-12.83,-12.89,0,*6F
1509458850.44,24752,7.31,73060.3,-12.01,-12.83,-12.89,0,*6E
1509458851.71,24753,7.38,73062.8,-12.01,-12.83,-12.89,0,*6F
1509458852.98,24754,7.31,73052.3,-12.01,-12.83,-12.89,0,*68
1509458854.22,24755,7.31,73052.8,-11.99,-12.83,-12.89,0,*6B
1509458855.46,24756,7.31,73050.3,-12.01,-12.89,-12.89,0,*60
1509458856.71,24757,7.31,73034.3,-12.01,-12.89,-12.89,0,*61
1509458857.97,24758,7.31,73036.5,-12.01,-12.83,-12.89,0,*64
1509458859.19,24759,7.38,73030.3,-11.99,-12.89,-12.93,0,*66
1509458860.45,24760,7.38,73028.5,-12.01,-13.01,-13.15,0,*60
1509458861.7,24761,7.31,73004.5,-12.01,-12.93,-13.07,0,*68
1509458862.93,24762,7.31,73006.0,-11.99,-12.93,-13.01,0,*6F
1509458864.18,24763,7.31,73018.3,-12.01,-12.93,-12.93,0,*66
1509458865.4,24764,7.38,73030.5,-12.05,-12.89,-12.97,0,*6A
1509458866.62,24765,7.31,73022.0,-12.05,-12.93,-12.97,0,*60
1509458867.86,24766,7.31,73036.3,-12.07,-12.93,-13.07,0,*69
1509458869.1,24767,7.31,73034.8,-12.01,-12.89,-12.93,0,*69
1509458870.37,24768,7.31,73028.0,-12.01,-12.83,-12.89,0,*67
1509458871.61,24769,7.38,73040.5,-12.01,-12.89,-12.89,0,*6C
1509458872.85,24770,7.38,73044.5,-12.01,-12.89,-12.89,0,*64
1509458874.1,24771,7.31,73042.8,-12.01,-12.89,-12.89,0,*65
1509458875.34,24772,7.31,73044.0,-12.01,-12.89,-12.89,0,*66
1509458876.59,24773,7.31,73046.8,-12.01,-12.89,-12.89,0,*67
1509458877.83,24774,7.38,73040.8,-12.01,-12.89,-12.89,0,*60
1509458879.07,24775,7.31,73034.8,-12.01,-12.89,-12.93,0,*6A
1509458880.31,24776,7.31,73030.3,-11.99,-12.83,-12.89,0,*6A
1509458881.58,24777,7.31,73022.0,-12.01,-12.75,-12.89,0,*60
1509458882.88,24778,7.31,73022.8,-12.01,-12.71,-12.83,0,*61
1509458884.15,24779,7.31,73038.5,-12.01,-12.75,-12.89,0,*6E
1509458885.42,24780,7.31,73042.3,-12.01,-12.71,-12.89,0,*6C
1509458886.69,24781,7.31,73038.8,-12.01,-12.75,-12.89,0,*69
1509458887.99,24782,7.31,73026.5,-12.01,-12.75,-12.83,0,*60
1509458889.29,24783,7.38,73028.5,-12.01,-12.75,-12.75,0,*68
1509458890.59,24784,7.31,73026.8,-12.01,-12.71,-12.71,0,*6F
1509458891.88,24785,7.31,73032.3,-12.01,-12.71,-12.83,0,*63
1509458893.15,24786,7.38,73046.0,-12.01,-12.75,-12.89,0,*6E
1509458894.42,24787,7.31,73048.3,-11.99,-12.75,-12.83,0,*67
1509458895.72,24788,7.38,73050.5,-12.01,-12.71,-12.83,0,*6E